TimeGMT,TemperatureF,Dew PointF,Humidity,Sea Level PressureIn,VisibilityMPH,Wind Direction,Wind SpeedMPH,Gust SpeedMPH,PrecipitationIn,Events,Conditions,WindDirDegrees,DateUTC
12:20 AM,50.0,44.6,82,30.01,6.2,West,23.0,-,N/A,Rain,Light Rain,280,2014-03-17 00:20:00
12:50 AM,50.0,44.6,82,30.01,3.1,West,20.7,33.4,N/A,,Light Drizzle,280,2014-03-17 00:50:00
1:20 AM,48.2,44.6,87,30.01,6.2,West,20.7,-,N/A,Rain,Light Rain,270,2014-03-17 01:20:00
1:50 AM,50.0,44.6,82,30.01,6.2,West,18.4,-,N/A,,Mostly Cloudy,280,2014-03-17 01:50:00
2:20 AM,50.0,42.8,76,30.01,6.2,West,18.4,-,N/A,,Mostly Cloudy,280,2014-03-17 02:20:00
2:50 AM,50.0,42.8,76,29.98,6.2,West,13.8,-,N/A,,Scattered Clouds,280,2014-03-17 02:50:00
3:20 AM,50.0,44.6,82,29.98,6.2,West,16.1,-,N/A,Rain,Light Rain,270,2014-03-17 03:20:00
3:50 AM,50.0,44.6,82,29.98,6.2,West,18.4,-,N/A,,Mostly Cloudy,280,2014-03-17 03:50:00
4:20 AM,50.0,44.6,82,29.98,6.2,West,15.0,-,N/A,,Mostly Cloudy,260,2014-03-17 04:20:00
4:50 AM,50.0,44.6,82,30.01,6.2,WSW,12.7,-,N/A,,Mostly Cloudy,250,2014-03-17 04:50:00
5:20 AM,50.0,44.6,82,30.01,6.2,West,12.7,-,N/A,,Mostly Cloudy,260,2014-03-17 05:20:00
5:50 AM,50.0,44.6,82,29.98,6.2,WSW,11.5,-,N/A,,Mostly Cloudy,250,2014-03-17 05:50:00
6:20 AM,50.0,44.6,82,29.98,6.2,WSW,8.1,-,N/A,,Mostly Cloudy,240,2014-03-17 06:20:00
6:50 AM,50.0,44.6,82,29.98,6.2,WSW,10.4,-,N/A,,Mostly Cloudy,250,2014-03-17 06:50:00
7:20 AM,50.0,44.6,82,30.01,6.2,WSW,11.5,-,N/A,,Mostly Cloudy,250,2014-03-17 07:20:00
7:50 AM,50.0,44.6,82,30.01,6.2,WSW,15.0,-,N/A,,Mostly Cloudy,240,2014-03-17 07:50:00
8:20 AM,50.0,46.4,87,30.01,6.2,WSW,16.1,-,N/A,,Mostly Cloudy,250,2014-03-17 08:20:00
8:50 AM,50.0,46.4,87,30.01,6.2,WSW,15.0,-,N/A,,Mostly Cloudy,250,2014-03-17 08:50:00
9:20 AM,50.0,46.4,87,30.01,6.2,West,16.1,-,N/A,,Mostly Cloudy,260,2014-03-17 09:20:00
9:50 AM,48.2,46.4,93,30.01,6.2,West,13.8,-,N/A,,Light Drizzle,260,2014-03-17 09:50:00
10:20 AM,48.2,46.4,93,30.01,5.6,West,16.1,-,N/A,,Light Drizzle,260,2014-03-17 10:20:00
10:50 AM,48.2,46.4,93,30.01,6.2,West,17.3,-,N/A,,Mostly Cloudy,260,2014-03-17 10:50:00
11:20 AM,48.2,44.6,87,30.01,6.2,WSW,19.6,-,N/A,,Mostly Cloudy,250,2014-03-17 11:20:00
11:50 AM,48.2,44.6,87,30.01,6.2,WSW,19.6,-,N/A,,Mostly Cloudy,240,2014-03-17 11:50:00
12:20 PM,50.0,42.8,76,30.01,6.2,WSW,18.4,-,N/A,,Mostly Cloudy,250,2014-03-17 12:20:00
12:50 PM,51.8,44.6,76,29.98,6.2,West,23.0,-,N/A,,Scattered Clouds,260,2014-03-17 12:50:00
1:20 PM,51.8,42.8,71,29.98,6.2,West,21.9,-,N/A,,Partly Cloudy,270,2014-03-17 13:20:00
1:50 PM,50.0,41.0,71,29.95,6.2,West,19.6,31.1,N/A,,Partly Cloudy,260,2014-03-17 13:50:00
2:20 PM,51.8,42.8,71,29.95,6.2,West,17.3,-,N/A,,Scattered Clouds,260,2014-03-17 14:20:00
2:50 PM,51.8,42.8,71,29.95,6.2,West,20.7,-,N/A,,Mostly Cloudy,260,2014-03-17 14:50:00
3:20 PM,51.8,42.8,71,29.95,6.2,WSW,20.7,-,N/A,,Mostly Cloudy,250,2014-03-17 15:20:00
3:50 PM,51.8,42.8,71,29.95,6.2,West,17.3,-,N/A,,Mostly Cloudy,260,2014-03-17 15:50:00
4:20 PM,51.8,41.0,67,29.95,6.2,WSW,16.1,27.6,N/A,,Mostly Cloudy,250,2014-03-17 16:20:00
4:50 PM,48.2,41.0,76,29.95,6.2,WSW,18.4,-,N/A,,Mostly Cloudy,250,2014-03-17 16:50:00
5:20 PM,48.2,41.0,76,29.92,6.2,WSW,15.0,-,N/A,,Mostly Cloudy,250,2014-03-17 17:20:00
5:50 PM,48.2,41.0,76,29.92,6.2,WSW,13.8,-,N/A,,Mostly Cloudy,250,2014-03-17 17:50:00
6:20 PM,48.2,41.0,76,29.92,6.2,WSW,13.8,-,N/A,,Mostly Cloudy,250,2014-03-17 18:20:00
6:50 PM,48.2,41.0,76,29.92,6.2,WSW,11.5,-,N/A,,Mostly Cloudy,250,2014-03-17 18:50:00
7:20 PM,46.4,41.0,81,29.95,6.2,WSW,12.7,-,N/A,,Mostly Cloudy,250,2014-03-17 19:20:00
7:50 PM,46.4,41.0,81,29.92,6.2,WSW,17.3,31.1,N/A,,Mostly Cloudy,250,2014-03-17 19:50:00
8:20 PM,46.4,41.0,81,29.92,6.2,West,10.4,-,N/A,Rain,Light Rain,260,2014-03-17 20:20:00
8:50 PM,46.4,41.0,81,29.92,6.2,West,11.5,-,N/A,,Mostly Cloudy,260,2014-03-17 20:50:00
9:20 PM,46.4,42.8,87,29.92,6.2,WSW,12.7,-,N/A,,Mostly Cloudy,250,2014-03-17 21:20:00
9:50 PM,46.4,41.0,81,29.89,6.2,West,12.7,-,N/A,,Mostly Cloudy,260,2014-03-17 21:50:00
10:20 PM,46.4,41.0,81,29.89,6.2,West,12.7,-,N/A,,Mostly Cloudy,260,2014-03-17 22:20:00
10:50 PM,44.6,41.0,87,29.89,6.2,WSW,11.5,-,N/A,,Scattered Clouds,240,2014-03-17 22:50:00
11:20 PM,44.6,41.0,87,29.89,6.2,WSW,8.1,-,N/A,,Partly Cloudy,240,2014-03-17 23:20:00
11:50 PM,44.6,41.0,87,29.86,-9999.0,West,6.9,-,N/A,,Clear,270,2014-03-17 23:50:00